FW0979 Weather Reports


time (UTC)temp
F
wind
direction
speed
knots
gust
knots
rain 1hr
in
rain 24hr
in
rain mn
in
humidity
%
barometer
mb
20260508130059 58 207 2.6 7.0 0.00 0.00 0.00 90 1010.7
20260508124547 57 210 1.7 5.2 0.00 0.00 0.00 90 1010.5
20260508123050 57 200 4.3 9.6 0.00 0.00 0.00 89 1010.3
20260508121541 57 210 2.6 6.1 0.00 0.00 0.00 89 1010.1
20260508120031 57 212 1.7 4.3 0.00 0.00 0.00 88 1010.1
20260508114530 57 212 1.7 6.1 0.00 0.00 0.00 88 1010.2
20260508113027 56 212 2.6 6.1 0.00 0.00 0.00 87 1010.4
20260508111526 56 228 2.6 6.1 0.00 0.00 0.00 86 1010.6
20260508110027 56 231 2.6 7.8 0.00 0.00 0.00 84 1010.6
20260508104527 56 199 4.3 9.6 0.00 0.00 0.00 82 1010.6
20260508103026 56 195 3.5 8.7 0.00 0.00 0.00 82 1010.6
20260508101523 56 202 6.1 11.3 0.00 0.00 0.00 83 1010.4
20260508100019 57 158 6.1 12.2 0.00 0.00 0.00 82 1010.5
20260508094536 56 201 3.5 7.8 0.00 0.00 0.00 79 1010.6
20260508093013 56 360 2.6 7.8 0.00 0.00 0.00 77 1010.8
20260508091514 55 219 2.6 6.1 0.00 0.00 0.00 74 1010.7
20260508090004 55 360 2.6 5.2 0.00 0.00 0.00 73 1010.7
20260508084559 56 360 2.6 4.3 0.00 0.00 0.00 72 1010.9
20260508083054 56 224 2.6 6.1 0.00 0.00 0.00 71 1011.0
20260508081605 56 221 0.9 3.5 0.00 0.00 0.00 70 1011.3
20260508080054 56 219 2.6 5.2 0.00 0.00 0.00 70 1011.1
20260508074542 57 217 2.6 6.1 0.00 0.00 0.00 69 1011.3
20260508073045 57 360 3.5 5.2 0.00 0.00 0.00 68 1011.4
20260508071546 57 207 2.6 8.7 0.00 0.00 0.00 68 1011.4
20260508070048 58 212 3.5 6.1 0.00 0.00 0.00 67 1011.5
20260508064534 58 200 2.6 4.3 0.00 0.00 0.00 66 1011.9
20260508063023 59 198 1.7 4.3 0.00 0.00 0.00 64 1012.0
20260508061521 59 198 1.7 4.3 0.00 0.00 0.00 63 1012.0
20260508060021 60 202 3.5 7.0 0.00 0.00 0.00 62 1012.0
20260508054513 60 217 2.6 6.1 0.00 0.00 0.00 61 1012.1
20260508053012 61 179 3.5 7.8 0.00 0.00 0.00 60 1012.1
20260508051512 62 181 4.3 9.6 0.00 0.00 0.00 59 1012.2
20260508050011 62 213 5.2 10.4 0.00 0.00 0.00 58 1012.0
20260508044512 63 198 5.2 10.4 0.00 0.00 0.00 57 1012.0
20260508043014 64 179 6.1 12.2 0.00 0.00 0.00 55 1012.1
20260508041510 64 192 7.0 14.8 0.00 0.00 0.00 53 1012.2
20260508040011 65 205 5.2 11.3 0.00 0.00 0.00 52 1011.9
20260508034513 66 196 6.1 12.2 0.00 0.00 0.00 51 1011.7
20260508033009 66 179 5.2 9.6 0.00 0.00 0.00 49 1011.6
20260508031508 67 191 4.3 7.0 0.00 0.00 0.00 47 1011.4
20260508030109 68 179 3.5 6.1 0.00 0.00 0.00 46 1011.1
20260508024619 68 169 2.6 5.2 0.00 0.00 0.00 44 1011.1
20260508023055 69 165 2.6 6.1 0.00 0.00 0.00 43 1010.9
20260508021555 70 168 4.3 7.0 0.00 0.00 0.00 42 1010.7
20260508020107 71 184 3.5 6.1 0.00 0.00 0.00 40 1010.5
20260508014604 72 179 4.3 7.0 0.00 0.00 0.00 39 1010.4
20260508013106 72 198 5.2 10.4 0.00 0.00 0.00 38 1010.2
20260508011559 73 179 4.3 9.6 0.00 0.00 0.00 36 1010.2
20260508010104 74 165 5.2 10.4 0.00 0.00 0.00 34 1010.3
20260508004551 75 193 5.2 10.4 0.00 0.00 0.00 34 1010.2
20260508003051 76 201 6.1 11.3 0.00 0.00 0.00 33 1010.2
20260508001556 76 165 6.1 11.3 0.00 0.00 0.00 32 1010.2
20260508000054 76 202 6.1 13.0 0.00 0.00 0.00 31 1010.2
20260507234549 77 158 6.1 12.2 0.00 0.00 0.00 30 1010.3
20260507233048 77 179 6.1 13.0 0.00 0.00 0.00 31 1010.2
20260507231547 77 178 6.1 14.8 0.00 0.00 0.00 31 1010.3
20260507230043 0 0.0 0.0 0.00 0.00 0.00 1010.3
20260507224539 0 0.0 0.0 0.00 0.00 0.00 1010.5
20260507223039 77 141 5.2 11.3 0.00 0.00 0.00 31 1010.8
20260507221536 76 194 4.3 12.2 0.00 0.00 0.00 31 1010.9
20260507220034 76 131 4.3 11.3 0.00 0.00 0.00 31 1011.1
20260507214538 77 141 3.5 9.6 0.00 0.00 0.00 32 1011.2
20260507213039 77 203 3.5 8.7 0.00 0.00 0.00 32 1011.5
20260507211542 75 195 3.5 7.8 0.00 0.00 0.00 33 1011.7
20260507210024 0 0.0 0.0 0.00 0.00 0.00 1012.0
20260507204520 0 0.0 0.0 0.00 0.00 0.00 1012.2
20260507203017 72 162 2.6 9.6 0.00 0.00 0.00 37 1012.4
20260507201525 72 156 4.3 7.8 0.00 0.00 0.00 37 1012.8
20260507200017 72 360 2.6 7.0 0.00 0.00 0.00 39 1013.0
20260507194513 71 236 3.5 7.0 0.00 0.00 0.00 39 1013.3
20260507193015 71 227 1.7 7.0 0.00 0.00 0.00 39 1013.7
20260507191520 71 360 2.6 8.7 0.00 0.00 0.00 39 1014.0
20260507190009 70 149 1.7 7.0 0.00 0.00 0.00 41 1014.1
20260507184506 0 0.0 0.0 0.00 0.00 0.00 1014.5
20260507183002 69 183 2.6 5.2 0.00 0.00 0.00 43 1014.6
20260507181502 68 264 2.6 7.8 0.00 0.00 0.00 44 1015.1
20260507180101 69 177 1.7 7.8 0.00 0.00 0.00 43 1015.4
20260507180001 69 184 1.7 7.8 0.00 0.00 0.00 43 1015.4
20260507174601 68 148 2.6 6.1 0.00 0.00 0.00 44 1015.8
20260507173103 67 129 1.7 6.1 0.00 0.00 0.00 45 1016.1
20260507171556 67 220 1.7 6.1 0.00 0.00 0.00 47 1016.3
20260507170054 65 217 2.6 6.1 0.00 0.00 0.00 47 1016.6
20260507164551 65 200 1.7 5.2 0.00 0.00 0.00 48 1016.8
20260507163046 61 360 2.6 7.0 0.00 0.00 0.00 53 1017.0
20260507161551 61 180 2.6 7.0 0.00 0.00 0.00 52 1017.2
20260507160042 59 116 2.6 7.0 0.00 0.00 0.00 55 1017.3
20260507154542 59 91 3.5 7.8 0.00 0.00 0.00 55 1017.5
20260507153038 58 63 2.6 7.0 0.00 0.00 0.00 56 1017.6
20260507151538 56 129 2.6 7.0 0.00 0.00 0.00 59 1017.7
20260507150036 56 94 4.3 8.7 0.00 0.00 0.00 59 1017.8
20260507144536 55 107 2.6 8.7 0.00 0.00 0.00 60 1017.9
20260507143033 54 360 3.5 8.7 0.00 0.00 0.00 62 1017.9
20260507141531 54 79 3.5 7.0 0.00 0.00 0.00 64 1017.9
20260507140034 53 360 4.3 8.7 0.00 0.00 0.00 66 1017.9
20260507134526 52 360 5.2 9.6 0.00 0.00 0.00 67 1017.7
20260507133024 51 360 6.1 11.3 0.00 0.00 0.00 68 1017.5
20260507131521 51 360 5.2 9.6 0.00 0.00 0.00 69 1017.3